[[{"header":{"parameterUnit":"m.s-1","parameterCategory":1,"la1":30.2991,"la2":30.254,"lo1":-89.0895,"lo2":-89.0444,"dy":0.0017,"dx":0.0017,"nx":28,"ny":28,"refTime":"2024-09-02T09:00:00:Z","depth":0,"parameterNumber":2,"parameterNumberName":"U-component_of_WINDS"},"data":[0,0,0,0,0,0,0,0,0,0,0,0,0,0,0,0,0,0,0,0,0,0,0,0,0,0,0,0,0,0,0,0,0,0,0,0,0,0,0,0,0,0,0,0,0,0,0,0,0,0,0,0,0,0,0,0,0,0,-0.1856,-0.1855,0,-0.1713,-0.1711,-0.171,-0.1649,-0.165,-0.165,-0.165,-0.1504,-0.15,-0.1495,0,0,0,0,0,0,0,0,0,0,0,0,0,-0.2082,-0.2078,-0.1856,-0.1855,-0.1853,-0.1713,-0.1711,-0.1709,-0.1649,-0.165,-0.165,-0.165,-0.1505,-0.15,-0.1495,0,0,0,0,0,0,0,0,0,0,0,0,0,-0.1966,-0.2077,-0.1857,-0.1806,-0.18,-0.1714,-0.1711,-0.1709,-0.1649,-0.165,-0.165,-0.165,-0.1507,-0.1501,-0.1494,-0.1448,0,0,-0.1475,-0.1473,0,0,0,0,0,0,0,0,-0.1972,-0.1958,-0.1815,-0.1809,-0.1803,-0.1699,-0.1737,-0.1621,-0.1649,-0.1707,-0.165,-0.1651,-0.1568,-0.1557,-0.1529,-0.1441,-0.1435,-0.1475,-0.1471,-0.1468,-0.1467,0,0,0,0,0,0,0,-0.1981,-0.1963,-0.18,-0.1813,-0.1806,-0.1792,-0.1776,-0.1715,-0.1637,-0.1702,-0.1697,-0.1681,-0.1565,-0.1536,-0.1525,-0.1432,-0.1475,-0.1469,-0.1466,-0.1463,-0.1304,-0.1303,0,0,0,0,0,0,-0.1997,-0.197,-0.1804,-0.1795,-0.189,-0.1787,-0.1769,-0.1732,-0.1637,-0.1623,-0.168,-0.1678,-0.1546,-0.1533,-0.152,-0.1462,-0.1468,-0.1463,-0.1459,-0.1304,-0.1303,-0.1303,0,0,0,0,0,0,-0.2002,-0.1982,-0.181,-0.1882,-0.1859,-0.1783,-0.1742,-0.1729,-0.1699,-0.1621,-0.1608,-0.1664,-0.1546,-0.1529,-0.1467,-0.1456,-0.146,-0.1454,-0.1305,-0.1304,-0.1303,-0.1344,0,0,0,0,0,0,-0.2008,-0.1984,-0.1965,-0.1882,-0.1855,-0.1758,-0.1741,-0.1726,-0.1689,-0.1685,-0.1603,-0.1589,-0.1545,-0.1477,-0.1461,-0.1447,-0.1449,-0.1305,-0.1304,-0.1303,-0.1343,-0.1345,-0.1346,0,0,0,0,0,-0.2017,-0.1981,-0.1964,-0.1944,-0.1829,-0.1758,-0.1743,-0.1692,-0.1688,-0.1669,-0.162,-0.1592,-0.146,-0.1471,-0.1453,-0.1437,-0.1306,-0.1305,-0.1304,-0.1343,-0.1344,-0.1346,0,0,0,0,0,0,-0.2064,-0.1969,-0.1949,-0.1885,-0.183,-0.1748,-0.1721,-0.1695,-0.1639,-0.1638,-0.1578,-0.156,-0.1504,-0.1464,-0.1478,-0.139,-0.1381,-0.1376,-0.1417,-0.1418,-0.1419,-0.143,-0.1444,0,0,0,0,0,-0.2067,-0.2016,-0.1937,-0.1888,-0.1862,-0.1797,-0.1764,-0.173,-0.167,-0.1647,-0.1593,-0.1536,-0.1483,-0.1448,-0.1394,-0.1338,-0.1321,-0.1319,-0.132,-0.1321,-0.1318,-0.1289,-0.1288,-0.1299,-0.1299,-0.1299,0,0,-0.2072,-0.2014,-0.1986,-0.1896,-0.185,-0.1801,-0.1777,-0.1725,-0.1689,-0.1639,-0.1578,-0.1537,-0.147,-0.1413,-0.1384,-0.1378,-0.1311,-0.132,-0.1322,-0.1317,-0.1288,-0.1287,-0.1286,-0.1298,-0.1299,-0.1299,0,0,-0.2057,-0.2008,-0.1963,-0.1918,-0.1848,-0.1806,-0.1796,-0.1718,-0.1689,-0.1628,-0.1591,-0.1547,-0.1455,-0.141,-0.1375,-0.1349,-0.1323,-0.1334,-0.134,-0.1313,-0.1312,-0.1311,-0.1303,-0.1301,-0.133,-0.133,-0.1331,0,-0.2073,-0.1996,-0.1944,-0.1895,-0.1858,-0.1813,-0.1769,-0.1727,-0.1644,-0.162,-0.1615,-0.1501,-0.1452,-0.1385,-0.138,-0.1352,-0.134,-0.1342,-0.1316,-0.1314,-0.1313,-0.1305,-0.1302,-0.1332,-0.1332,-0.1332,-0.1332,0,-0.202,-0.1968,-0.1941,-0.1863,-0.1823,-0.1777,-0.172,-0.1686,-0.1657,-0.1616,-0.1556,-0.1498,-0.1433,-0.1415,-0.1385,-0.1344,-0.1343,-0.1328,-0.1318,-0.1314,-0.1306,-0.1303,-0.1335,-0.1334,-0.1334,-0.1333,0,0,-0.2027,-0.1924,-0.1915,-0.1881,-0.1803,-0.1762,-0.1716,-0.1653,-0.1627,-0.1572,-0.1533,-0.1459,-0.1445,-0.1406,-0.1372,-0.1348,-0.1335,-0.1335,-0.1333,-0.1339,-0.1289,-0.1302,-0.1299,-0.1317,-0.1317,-0.1316,-0.1296,0,-0.2003,-0.1917,-0.1871,-0.1805,-0.1758,-0.1717,-0.1677,-0.1626,-0.1588,-0.1544,-0.1502,-0.1451,-0.1436,-0.1413,-0.1387,-0.1342,-0.1324,-0.1342,-0.1282,-0.128,-0.13,-0.1294,-0.1306,-0.1289,-0.1292,-0.1291,-0.1291,0,-0.1961,-0.1909,-0.1839,-0.177,-0.1749,-0.1714,-0.1655,-0.1613,-0.1556,-0.153,-0.1489,-0.1456,-0.1408,-0.1403,-0.1338,-0.1352,-0.1325,-0.1299,-0.1297,-0.1289,-0.1285,-0.1287,-0.1282,-0.1281,-0.1285,-0.1286,-0.1286,0,-0.1976,-0.1888,-0.1836,-0.1807,-0.1725,-0.1702,-0.1667,-0.1611,-0.1577,-0.1526,-0.1505,-0.1449,-0.1419,-0.1377,-0.1331,-0.1331,-0.1271,-0.1262,-0.125,-0.1251,-0.1238,-0.1239,-0.123,-0.1221,-0.1221,-0.1221,-0.1221,0,-0.1954,-0.1913,-0.1842,-0.1809,-0.1764,-0.1713,-0.167,-0.1631,-0.1583,-0.1544,-0.1505,-0.1469,-0.141,-0.1369,-0.1333,-0.1286,-0.1272,-0.1251,-0.1242,-0.1254,-0.1257,-0.1235,-0.1236,-0.122,-0.122,-0.122,-0.122,0,-0.1962,-0.1912,-0.1853,-0.1781,-0.1763,-0.1732,-0.1672,-0.164,-0.1602,-0.1554,-0.154,-0.1479,-0.1429,-0.1379,-0.131,-0.1286,-0.124,-0.1228,-0.1259,-0.1254,-0.1246,-0.1248,-0.1222,-0.1217,-0.1211,-0.1211,-0.1211,0,-0.195,-0.1918,-0.1845,-0.1816,-0.1783,-0.1737,-0.1703,-0.1654,-0.1621,-0.1556,-0.1533,-0.148,-0.1434,-0.1355,-0.1306,-0.1255,-0.1241,-0.1236,-0.1233,-0.1248,-0.1243,-0.1245,-0.1243,-0.1237,-0.1237,-0.1238,-0.1238,0,-0.1937,-0.1915,-0.1868,-0.1814,-0.1776,-0.173,-0.1684,-0.1663,-0.1605,-0.157,-0.1518,-0.1484,-0.1415,-0.1364,-0.1307,-0.1273,-0.1246,-0.124,-0.1234,-0.1247,-0.1267,-0.1257,-0.1264,-0.124,-0.124,-0.1239,-0.1239,-0.1239,-0.1935,-0.1906,-0.1851,-0.1801,-0.1762,-0.172,-0.1688,-0.1647,-0.1603,-0.1543,-0.1517,-0.1466,-0.1414,-0.1335,-0.1302,-0.1262,-0.1255,-0.1247,-0.1245,-0.1244,-0.1248,-0.1274,-0.1252,-0.1252,-0.1251,-0.1251,-0.1251,0,-0.1921,-0.1884,-0.1839,-0.1777,-0.1739,-0.1718,-0.1667,-0.1637,-0.1592,-0.1545,-0.1502,-0.1445,-0.1396,-0.1345,-0.1293,-0.1271,-0.1258,-0.126,-0.1261,-0.1254,-0.1256,-0.1266,-0.1271,-0.1271,-0.1271,-0.1271,-0.1271,-0.1271,-0.1909,-0.186,-0.1832,-0.1765,-0.1728,-0.1677,-0.165,-0.1613,-0.1576,-0.1514,-0.1473,-0.144,-0.1393,-0.1339,-0.1294,-0.128,-0.1263,-0.1268,-0.1252,-0.1254,-0.1253,-0.1252,-0.1261,-0.1265,-0.1265,-0.1253,-0.1252,-0.1252]},{"header":{"parameterUnit":"m.s-1","parameterCategory":1,"la1":30.2991,"la2":30.254,"lo1":-89.0895,"lo2":-89.0444,"dy":0.0017,"dx":0.0017,"nx":28,"ny":28,"refTime":"2024-09-02T09:00:00:Z","depth":0,"parameterNumber":3,"parameterNumberName":"V-component_of_WINDS"},"data":[0,0,0,0,0,0,0,0,0,0,0,0,0,0,0,0,0,0,0,0,0,0,0,0,0,0,0,0,0,0,0,0,0,0,0,0,0,0,0,0,0,0,0,0,0,0,0,0,0,0,0,0,0,0,0,0,0,0,2.5867,2.5868,0,2.5963,2.5964,2.5965,2.6014,2.6014,2.6014,2.6014,2.6106,2.6108,2.6111,0,0,0,0,0,0,0,0,0,0,0,0,0,2.5718,2.5721,2.5867,2.5868,2.587,2.5963,2.5964,2.5965,2.6014,2.6014,2.6014,2.6014,2.6105,2.6108,2.6111,0,0,0,0,0,0,0,0,0,0,0,0,0,2.5795,2.5722,2.5867,2.5905,2.5909,2.5962,2.5964,2.5966,2.6014,2.6014,2.6014,2.6014,2.6104,2.6108,2.6111,2.6132,0,0,2.6122,2.6124,0,0,0,0,0,0,0,0,2.5791,2.58,2.5898,2.5903,2.5908,2.5977,2.5945,2.6021,2.6014,2.5974,2.6014,2.6014,2.6062,2.607,2.6087,2.6136,2.614,2.6123,2.6125,2.6126,2.6128,0,0,0,0,0,0,0,2.5785,2.5797,2.5905,2.59,2.5905,2.5915,2.5926,2.596,2.6016,2.5977,2.5981,2.5992,2.6065,2.6084,2.609,2.6142,2.6123,2.6126,2.6128,2.6129,2.6208,2.6208,0,0,0,0,0,0,2.5775,2.5792,2.5902,2.5908,2.5848,2.5917,2.593,2.5954,2.6016,2.6026,2.5992,2.5994,2.6077,2.6085,2.6093,2.6119,2.6126,2.613,2.6132,2.6208,2.6208,2.6208,0,0,0,0,0,0,2.5771,2.5784,2.5898,2.5851,2.5866,2.592,2.5947,2.5956,2.5975,2.6027,2.6037,2.6001,2.6078,2.6088,2.6122,2.6123,2.6131,2.6135,2.6208,2.6208,2.6208,2.6173,0,0,0,0,0,0,2.5767,2.5783,2.5794,2.5851,2.5869,2.5927,2.5947,2.5958,2.5982,2.5985,2.6038,2.6047,2.6079,2.6116,2.6125,2.6128,2.6138,2.6209,2.6208,2.6208,2.6174,2.6172,2.6169,0,0,0,0,0,2.5761,2.5779,2.5794,2.5807,2.5884,2.5928,2.5937,2.5975,2.5982,2.5991,2.6024,2.6046,2.6121,2.6119,2.613,2.6134,2.6209,2.6208,2.6208,2.6175,2.6172,2.6169,0,0,0,0,0,0,2.572,2.5788,2.5805,2.5842,2.5879,2.5936,2.595,2.5971,2.6005,2.6007,2.605,2.6061,2.609,2.6115,2.6111,2.6155,2.6167,2.6169,2.6138,2.6135,2.6133,2.6126,2.6141,0,0,0,0,0,2.5715,2.5748,2.5804,2.5832,2.5849,2.5896,2.5916,2.5942,2.5981,2.5996,2.6032,2.6067,2.6098,2.6118,2.615,2.6178,2.6188,2.6185,2.6183,2.6181,2.6182,2.6194,2.6193,2.6208,2.6208,2.6208,0,0,2.5706,2.5747,2.5765,2.5824,2.5856,2.5885,2.5909,2.594,2.5961,2.6,2.6034,2.6061,2.6102,2.6132,2.6147,2.6154,2.618,2.618,2.6178,2.6181,2.6194,2.6193,2.6191,2.6208,2.6208,2.6208,0,0,2.5704,2.5739,2.5765,2.5795,2.5842,2.5873,2.5878,2.5931,2.5951,2.5986,2.6014,2.6039,2.6093,2.6121,2.6142,2.6145,2.6165,2.6154,2.6141,2.6153,2.6152,2.6151,2.615,2.615,2.6155,2.6155,2.6155,0,2.5686,2.5735,2.5775,2.5804,2.5827,2.5864,2.5888,2.5915,2.5969,2.5983,2.5991,2.6057,2.6088,2.6123,2.6123,2.614,2.6145,2.6148,2.6149,2.6149,2.6149,2.6148,2.6148,2.6153,2.6153,2.6153,2.6153,0,2.5709,2.5741,2.5755,2.5808,2.5833,2.5859,2.59,2.592,2.5941,2.5969,2.6002,2.604,2.6078,2.6088,2.611,2.6125,2.6128,2.6142,2.6154,2.6145,2.6145,2.6145,2.615,2.6151,2.6152,2.6152,0,0,2.5686,2.5758,2.5762,2.5785,2.5837,2.5862,2.5887,2.5926,2.5941,2.5976,2.5997,2.604,2.6052,2.6075,2.61,2.611,2.6107,2.6123,2.6124,2.6117,2.6122,2.6111,2.611,2.612,2.612,2.6121,2.6118,0,2.5691,2.5741,2.5776,2.5811,2.5839,2.5872,2.5894,2.5927,2.5952,2.5978,2.6006,2.6035,2.605,2.6064,2.6076,2.6105,2.6108,2.6106,2.6137,2.6138,2.6126,2.6111,2.61,2.6096,2.6119,2.6119,2.6119,0,2.5704,2.5738,2.5776,2.5822,2.5835,2.5855,2.5891,2.5916,2.5951,2.5969,2.5994,2.6018,2.6043,2.6052,2.6086,2.6083,2.6097,2.6113,2.6113,2.6117,2.6128,2.6113,2.6096,2.6095,2.612,2.612,2.612,0,2.5681,2.5736,2.5766,2.5784,2.5839,2.5851,2.5874,2.591,2.593,2.596,2.5973,2.6005,2.6023,2.6046,2.6077,2.6082,2.6106,2.6119,2.6119,2.6118,2.6123,2.6122,2.6107,2.6133,2.6133,2.6133,2.6133,0,2.5682,2.5704,2.5756,2.5774,2.5797,2.5835,2.5856,2.5882,2.5913,2.5934,2.5963,2.5982,2.6022,2.6045,2.6069,2.609,2.6099,2.6111,2.6117,2.6109,2.6107,2.6118,2.6119,2.6133,2.6133,2.6133,2.6133,0,2.5662,2.5698,2.5731,2.578,2.5792,2.5807,2.5847,2.5864,2.589,2.5915,2.5923,2.5964,2.5991,2.6024,2.6063,2.6078,2.6097,2.6107,2.6086,2.6089,2.6086,2.6086,2.6078,2.6078,2.6105,2.6104,2.6104,0,2.5661,2.5678,2.5727,2.5743,2.5766,2.5792,2.5812,2.5848,2.5867,2.5907,2.5917,2.5947,2.5973,2.6015,2.6046,2.6074,2.6084,2.6079,2.6089,2.6078,2.6082,2.608,2.608,2.6077,2.6076,2.6076,2.6076,0,2.5653,2.5669,2.5697,2.573,2.5753,2.5781,2.581,2.5821,2.5862,2.5881,2.591,2.5929,2.5967,2.5995,2.6027,2.6048,2.6067,2.6072,2.6073,2.6064,2.605,2.6056,2.6078,2.6072,2.6073,2.6073,2.6073,2.6073,2.5641,2.5656,2.5693,2.5722,2.5747,2.5772,2.5789,2.5816,2.5841,2.5876,2.5895,2.5922,2.5953,2.5997,2.6017,2.6037,2.6044,2.6046,2.6047,2.6046,2.6043,2.6047,2.6043,2.6043,2.6043,2.6043,2.6043,0,2.5633,2.5657,2.5684,2.5723,2.5744,2.5761,2.5793,2.5809,2.5833,2.5861,2.5886,2.5916,2.5942,2.5974,2.6002,2.6012,2.6021,2.6017,2.6017,2.602,2.6036,2.6031,2.6009,2.6009,2.6009,2.6009,2.6009,2.6009,2.5632,2.5658,2.5677,2.5714,2.5738,2.5765,2.5781,2.5803,2.5825,2.5859,2.5881,2.5901,2.593,2.5959,2.5983,2.5991,2.5999,2.5992,2.6003,2.6017,2.602,2.6023,2.6019,2.5994,2.5994,2.5986,2.5986,2.5986]}]]